www.pogodaiklimat.ru

Погода и климат >> Архив погоды >> Австралия >> Квинсленд >> Беркетаун


ПОГОДА в Беркетауне

  • Прогноз погоды в Беркетауне
  • Монитор погоды в Беркетауне

АРХИВ ПОГОДЫ в Беркетауне

Время (UTC), дата Ветер
(напр.,м/с)
 
Видим.   Явления Облачность Т
(С)
Тd
(С)
f
(%)
Тe
(С)
Тes
(С)
Комфортность P
(гПа)
Po
(гПа)
Тmin
(С)
Tmax
(С)
R
(мм)
R24
(мм)
S
(см)
02 19.04 В 6 н/о н/о +31.4 +17.3 43 +35 +35 очень
душно
1015.0 1014.3 +19.8
05 19.04 СВ 4 н/о н/о +33.3 +14.4 32 +35 +35 душно 1012.0 1011.3
08 19.04 С 4 н/о н/о +30.2 +15.1 40 +33 +33 душно 1011.4 1010.7
11 19.04 штиль 0 н/о н/о +23.7 +16.5 64 +27 +27 жарко 1012.8 1012.1
14 19.04 Ю 3 н/о н/о +22.1 +16.4 70 +26 +26 душно 1012.5 1011.8 +33.6
17 19.04 Ю 3 н/о 9/0
[]
+23.2 +14.5 58 +27 +27 душно 1011.7 1011.0
20 19.04 ЮВ 3 н/о н/о +22.0 +14.1 61 +25 +25 комфорт 1012.5 1011.8
23 19.04 В 5 н/о н/о +28.7 +19.1 56 +34 +34 очень
душно
1013.9 1013.2
02 20.04 В 6 н/о н/о +32.2 +16.9 40 +36 +36 очень
душно
1013.2 1012.5 +20.8
05 20.04 С 4 н/о н/о +32.7 +16.9 39 +36 +36 очень
душно
1010.5 1009.8
08 20.04 С 4 н/о 4/0
[]
+30.4 +17.5 46 +34 +35 очень
душно
1010.2 1009.5
11 20.04 З 3 н/о 10/0
[]
+25.4 +18.3 65 +30 +30 душно 1012.0 1011.3
14 20.04 ЮЗ 3 н/о н/о +23.5 +18.4 73 +28 +28 душно 1011.8 1011.1 +33.4
17 20.04 Ю 3 н/о н/о +22.0 +18.0 78 +27 +27 душно 1010.4 1009.7
20 20.04 ЮВ 4 н/о н/о +20.9 +13.8 64 +24 +24 комфорт 1010.7 1010.0
23 20.04 ЮВ 5 н/о н/о +26.8 +12.5 41 +28 +28 жарко 1012.4 1011.7
02 21.04 В 6 н/о 5/0
[]
+32.6 +16.8 39 +36 +40 очень
душно
1012.1 1011.4 +18.7
05 21.04 СВ 6 н/о н/о +33.2 +16.1 36 +36 +36 очень
душно
1009.8 1009.1
08 21.04 С 4 н/о н/о +30.3 +17.4 46 +34 +34 очень
душно
1010.1 1009.4
11 21.04 СЗ 2 н/о н/о +24.8 +19.0 70 +30 +30 душно 1011.9 1011.2
14 21.04 З 2 н/о 8/0
[]
+22.9 +19.1 79 +29 +29 очень
душно
1012.0 1011.3 +34.1
17 21.04 З 2 н/о 5/0
[]
+22.5 +19.3 82 +28 +28 душно 1010.4 1009.7
20 21.04 ЮЗ 4 н/о н/о +21.9 +15.0 65 +25 +25 комфорт 1010.8 1010.1
23 21.04 Ю 5 н/о н/о +28.5 +12.8 38 +30 +30 жарко 1012.4 1011.7
02 22.04 В 4 н/о н/о +34.4 +15.8 33 +37 +37 очень
душно
1011.7 1011.0 +19.8
05 22.04 В 6 н/о н/о +34.5 +18.1 38 +39 +39 очень
душно
1009.8 1009.1
08 22.04 С 5 н/о н/о +30.3 +17.7 47 +35 +35 очень
душно
1010.5 1009.8
11 22.04 штиль 0 н/о н/о +26.1 +19.2 66 +31 +31 очень
душно
1012.4 1011.7
14 22.04 Ю 3 н/о н/о +25.1 +19.2 70 +30 +30 душно 1012.7 1012.0 +35.7
17 22.04 Ю 4 н/о 4/0
[]
+26.6 +17.4 57 +31 +31 душно 1011.8 1011.1
20 22.04 Ю 4 н/о 1/0 2000 м
[]
+25.4 +16.3 57 +29 +29 душно 1012.3 1011.6
23 22.04 ЮВ 7 н/о н/о +29.0 +15.5 44 +32 +32 душно 1014.1 1013.4
02 23.04 В 6 н/о н/о +33.5 +16.4 36 +36 +36 очень
душно
1013.0 1012.3 +24.6
05 23.04 СВ 7 н/о н/о +34.3 +18.3 39 +39 +39 очень
душно
1010.5 1009.8
08 23.04 СВ 4 н/о 8/0
[]
+30.8 +19.5 51 +37 +37 очень
душно
1011.5 1010.8
11 23.04 З 1 н/о 4/0
[]
+27.3 +21.1 69 +34 +34 очень
душно
1012.9 1012.2
14 23.04 ЮЗ 3 н/о 5/0
[]
+25.6 +20.6 74 +32 +32 очень
душно
1012.7 1012.0 +35.8
17 23.04 Ю 3 н/о 1/0
[]
+25.7 +18.4 64 +30 +30 душно 1011.9 1011.2
20 23.04 Ю 5 н/о н/о +24.4 +16.4 61 +28 +28 душно 1013.0 1012.3
23 23.04 ЮВ 9 н/о н/о +28.3 +16.6 49 +32 +32 душно 1014.6 1013.9
02 24.04 ЮВ 6 н/о н/о +32.8 +17.0 39 +36 +36 очень
душно
1013.6 1012.9 +24.4
05 24.04 ЮВ 7 н/о 4/0
[]
+34.1 +13.5 29 +35 +37 очень
жарко
1010.7 1010.0
08 24.04 Ю 7 н/о 4/0
[]
+33.4 +13.5 30 +34 +34 очень
жарко
1010.6 1009.9
11 24.04 Ю 5 н/о н/о +28.8 +13.5 39 +30 +30 жарко 1012.3 1011.6
14 24.04 Ю 4 н/о н/о +26.5 +13.9 46 +29 +29 жарко 1012.2 1011.5 +35.9
17 24.04 Ю 7 н/о н/о +25.7 +12.9 45 +28 +28 жарко 1011.3 1010.6
20 24.04 Ю 5 н/о н/о +23.9 +12.5 49 +26 +26 жарко 1011.7 1011.0
23 24.04 ЮВ 8 н/о н/о +27.0 +14.4 46 +29 +29 жарко 1013.0 1012.3
02 25.04 ЮВ 7 н/о н/о +32.5 +15.9 37 +35 +35 душно 1011.8 1011.1 +23.4
05 25.04 Ю 5 н/о 1/0 2000 м
[]
+34.1 +13.0 28 +35 +40 очень
жарко
1009.0 1008.3
08 25.04 Ю 2 н/о 6/0
[]
+32.8 +12.9 30 +33 +34 жарко 1009.2 1008.5
11 25.04 Ю 3 н/о 4/0
[]
+26.3 +14.7 49 +29 +29 жарко 1011.1 1010.4
14 25.04 Ю 4 н/о н/о +24.5 +14.3 53 +27 +27 жарко 1011.4 1010.7 +35.0
17 25.04 Ю 5 н/о 1/0
[]
+24.9 +12.5 46 +27 +27 жарко 1010.1 1009.4
20 25.04 ЮВ 5 н/о н/о +23.9 +12.8 50 +26 +26 жарко 1010.4 1009.7
23 25.04 ЮВ 8 н/о н/о +27.1 +16.1 51 +30 +30 душно 1012.3 1011.6

 

Местоположение метеостанции Беркетаун (Квинсленд, Австралия): широта -17.75 долгота 139.53 высота над уровнем моря 6 м.

В архиве по умолчанию представлена погода в Беркетауне за последнюю неделю. Архивные данные за месяц целиком и за предыдущие месяцы, начиная с января 2011 года, Вы можете получить, выбрав интересующий диапазон дат из раскрывающегося списка и нажав кнопку "Ввод!".


*Определитесь, кто Вы:
робот инопланетянин человек

Внимание! Время в таблицах - всемирное. Для получения местного времени необходимо прибавить поправку, которая равна 10 ч.

Смотрите также архив погоды в соседних городах и на ближайших метеорологических станциях:

Погода на Острове Морнингтон (Квинсленд, Австралия) (127 км)
Погода на Руднике Century Mine (Квинсленд, Австралия) (142 км)
Погода в Нормантоне (Квинсленд, Австралия) (163 км)
Погода на Озере Джулиус (Квинсленд, Австралия) (264 км)
Погода в Камоауиле (Квинсленд, Австралия) (283 км)
Погода в Нью Мэй Даун (Квинсленд, Австралия) (317 км)
Погода на Маунт-Айза (Квинсленд, Австралия) (326 км)
Погода в Клонкарри (Квинсленд, Австралия) (340 км)
Погода в Кованьяме (Квинсленд, Австралия) (346 км)
Погода на Острове Центр (Северная территория, Австралия) (366 км)

Пояснения к столбцам:

Ветер - указаны скорость ветра в м/с - средняя за 10 мин, порывы в срок и между сроками (в фигурных скобках) и направление, откуда дует ветер: С - северный, СВ - северо-восточный, В - восточный, ЮВ - юго-восточный, Ю - южный, ЮЗ - юго-западный, З - западный, СЗ - северо-западный.
Видимость - горизонтальная дальность видимости в метрах или километрах. При видимости от 1 до 10 км при отсутствии осадков обычно наблюдается дымка, при ухудшении видимости до 1 км и менее - туман. В сухую погоду видимость может ухудшаться дымом, пылью или мглою.
Явления - указаны атмосферные явления, наблюдавшиеся в срок или в последний час перед сроком; фигурными скобками обозначены явления, наблюдавшиеся между сроками (за 1-3 часа до срока); квадратными скобками обозначены град или гололедные отложения с указанием их диаметра в мм.
Облачность - указаны через наклонную черту общая и нижняя облачность в баллах и высота нижней границы облаков в метрах; квадратными скобками обозначены формы облаков: Ci - перистые, Cs - перисто-слоистые, Cc - перисто-кучевые, Ac - высококучевые, As - высокослоистые, Sc - слоисто-кучевые, Ns - слоисто-дождевые, Cu - кучевые, Cb - кучево-дождевые. Подробнее классификацию облаков см. в Атласе облаков (PDF).
T - Температура воздуха - температура, измеренная на высоте 2 м над землей.
Td - Температура точки росы - температура, при понижении до которой содержащийся в воздухе водяной пар достигнет насыщения.
f - Относительная влажность воздуха - влажноcть воздуха, измеренная на высоте 2 м над землей.
Te - Эффективная температура - температура, которую ощущает одетый по сезону человек в тени. Характеристика душности погоды. При расчете учитывается влияние влажности воздуха и скорости ветра на теплоощущения человека.
Tes - Эффективная температура на солнце - температура, которую ощущает человек, с поправкой на солнечный нагрев. Характеристика знойности погоды. Зависит от высоты солнца над горизонтом, облачности и скорости ветра. Ночью, в пасмурную погоду, а также при ветре 12 м/с и более поправка равна нулю.
P - Атмосферное давление - приведенное к уровню моря атмосферное давление.
Po - Атмосферное давление - измеренное на уровне метеостанции атмосферное давление.
Tmin - Минимальная температура - минимум температуры воздуха на высоте 2 м над землей.
Tmax - Максимальная температура - максимум температуры воздуха на высоте 2 м над землей.
R - Количество осадков - Количество выпавших осадков за период времени, мм. При наведении курсора мыши на число - период времени, за который выпало указанное количество осадков.
R24 - Количество осадков - Количество выпавших осадков за 24 часа, мм.
S - Снежный покров - Высота снежного покрова, см. При наведении курсора мыши на число - состояние снежного покрова и степень покрытия местности в баллах.